Flag for Guatemala Weather past 2 weeks in Guatemala, Guatemala

Now
70 °F

Passing clouds.


Feels Like: 70 °F
Forecast: 63 / 84 °F
Wind: 9 mph from South

Location: Guatemala Aeropuertola Aurora

Current Time: Apr 27, 2015 at 9:06:21 PM

Latest Report: Apr 27, 2015 at 8:00 PM


Visibility: 4 mi

Pressure: 30.15 "Hg

Humidity: 83%

Dew point: 64 °F

Location of GuatemalaLocation

Historic Weather in Guatemala — Graph

°F

Guatemala temperature yesterday

Maximum temperature yesterday: 82 °F (at 12:00 PM)
Minimum temperature yesterday: 64 °F (at 3:00 AM)
Average temperature yesterday: 71 °F

Past Weeks' High & Low Weather Summary

 TemperatureHumidityPressure
High86 °F (Apr 24, 2:00 PM)100% (Apr 16, 11:00 PM)30.36 "Hg (Apr 16, 11:00 PM)
Low63 °F (Apr 13, 6:00 AM)29% (Apr 24, 2:00 PM)30.12 "Hg (Apr 26, 4:00 PM)
Average71 °F78%30.23 "Hg
* Reported Apr 12 8:00 PM — Apr 27 8:00 PM, Guatemala, Weather by CustomWeather, © 2015

Note: Actual official high and low records may vary slightly from our data, if they occured in-between our weather recording intervals... More about our weather records

Advertising

Guatemala weather history for previous 24 hours

 ConditionsComfort  
Time TempWeatherWind HumidityBarometerVisibility
8:00 PM
Mon, Apr 27
70 °FPassing clouds.9 mph83%30.15 "Hg4 mi
7:00 PM72 °FPassing clouds.12 mph78%30.15 "Hg4 mi
6:00 PM73 °FBroken clouds.12 mph69%30.12 "Hg4 mi
5:00 PM75 °FPartly sunny.18 mph69%30.12 "Hg5 mi
4:00 PM77 °FPartly sunny.16 mph57%30.12 "HgN/A
3:00 PM79 °FPartly sunny.18 mph51%30.12 "HgN/A
2:00 PM81 °FSunny.18 mph48%30.12 "Hg10 mi
1:00 PM82 °FSunny.16 mph40%30.15 "Hg10 mi
12:00 PM81 °FSunny.12 mph42%30.18 "Hg10 mi
11:00 AM77 °FSunny.9 mph47%30.18 "Hg10 mi
10:00 AM73 °FPartly sunny.12 mph57%30.21 "HgN/A
9:00 AM72 °FPartly sunny.9 mph65%30.21 "HgN/A
8:00 AM68 °FPartly sunny.7 mph78%30.21 "Hg5 mi
7:00 AM66 °FPartly sunny.5 mph83%30.18 "Hg4 mi
6:00 AM63 °FBroken clouds.5 mph88%30.15 "Hg4 mi
5:00 AM63 °FPassing clouds.5 mph88%30.15 "Hg4 mi
4:00 AM63 °FPassing clouds.9 mph94%30.15 "Hg4 mi
3:00 AM64 °FFog.9 mph94%30.15 "Hg3 mi
2:00 AM64 °FPassing clouds.5 mph94%30.15 "Hg4 mi
1:00 AM66 °FClear.5 mph83%30.18 "Hg4 mi
12:00 AM66 °FFog.5 mph88%30.18 "Hg3 mi
11:00 PM
Sun, Apr 26
66 °FClear.5 mph94%30.21 "Hg4 mi
10:00 PM66 °FClear.9 mph88%30.21 "Hg4 mi
9:00 PM68 °FClear.9 mph88%30.18 "Hg4 mi
Weather by CustomWeather, © 2015

See weather overviewHow to use our weather pages